Location: Ladirat
(44.8151°N, 1.9702°E)
Time: 04:51:10
(UTC+00:00)

Cosmos 1602 Rocket - Pass Details

Date: 15 May 2026
Orbit: 597 x 625 km, 82.5° (Epoch: 6 June)

Event Time Altitude Azimuth Distance (km) Brightness Sun altitude
Rises 20:40:09 0° 358° (N) 2,859 7.7 -13.1°
Reaches altitude 10° 20:42:28 10° 5° (N) 1,955 6.7 -13.4°
Maximum altitude 20:46:34 41° 76° (ENE) 882 4.1 -13.9°
Enters shadow 20:48:45 23° 133° (SE) 1,284 4.6 -14.2°
